User: anonymous   Login
Location: Sabalos
(43.2860°N, 0.1414°E)
Time: 23:23:37
(UTC+00:00)
Language:

SL-16 R/B - Orbit

View from above orbital plane
View from above orbital plane
View from above satellite
View from above satellite

Ground track
Ground track

The orbit data is extracted from the following two-line orbital elements,

1 31793U 07029B   20271.46727567 +.00000218 +00000-0 +13868-3 0  9997
2 31793 070.9771 032.0646 0001708 259.1158 165.0636 14.14431554684102
Epoch (UTC): 27 September 2020 11:12:52
Eccentricity: 0.0001708
inclination: 70.9771°
perigee height: 843 km
apogee height: 845 km
right ascension of ascending node: 32.0646°
argument of perigee: 259.1158°
revolutions per day: 14.14431554
mean anomaly at epoch: 165.0636°
orbit number at epoch: 68410

The dashed part of the orbit path shows where the satellite is in the earth's shadow,  

DLR